Weather History for Pawtucket, RI

Change the Weather History Date:

Tuesday, November 20, 2012

  Actual Average Record
Temperature  
Mean Temperature 39 °F -  
Max Temperature 48 °F 46 °F 66 °F (1999)
Min Temperature 30 °F 31 °F 19 °F (2008)
Degree Days  
Heating Degree Days 26    
Moisture  
Dew Point 31 °F    
Average Humidity 79    
Maximum Humidity 93    
Minimum Humidity 58    
Precipitation  
Precipitation 0.00 in - - ()
Sea Level Pressure  
Sea Level Pressure 30.16 in    
Wind  
Wind Speed 6 mph (NNE)    
Max Wind Speed 12 mph    
Max Gust Speed -    
Visibility 10 miles    
Events      
Averages and records for this station are not official NWS values.
T = Trace of Precipitation, MM = Missing Value Source: NWS Daily Summary

Daily Weather History Graph

Daily Weather History Graph

Search for Another Location

Airport:

Trip Planner

Search our weather history database for the weather conditions in past years. The results will help you decide how hot, cold, wet, or windy it might be!

Date:

Astronomy

Nov. 20, 2012 Rise Set
Actual Time 6:42 AM EST 4:20 PM EST
Civil Twilight 6:11 AM EST 4:51 PM EST
Nautical Twilight 5:37 AM EST 5:25 PM EST
Astronomical Twilight 5:04 AM EST 5:58 PM EST
Moon 12:11 PM EST (11/20) 11:53 PM EST (11/20)
Length of Visible Light 10h 39m
Length of Day
9h 38m
Waxing Crescent, 51% of the Moon is Illuminated
Nov 20
Waxing Crescent
Nov 28
Full
Dec 6
Last Quarter
Dec 13
New
Dec 20
First Quarter

Hourly Weather History & Observations

Time (EST) Temp. Windchill Dew Point Humidity Pressure Visibility Wind Dir Wind Speed Gust Speed Precip Events Conditions
12:15 AM 32.0 °F 27.5 °F 28.4 °F 87% 30.24 in 10.0 mi North 4.6 mph - N/A   Clear
12:35 AM 32.0 °F 27.5 °F 28.4 °F 87% 30.24 in 10.0 mi North 4.6 mph - N/A   Clear
12:55 AM 32.0 °F 27.5 °F 28.4 °F 87% 30.23 in 10.0 mi North 4.6 mph - N/A   Clear
1:15 AM 32.0 °F 27.5 °F 28.4 °F 87% 30.22 in 9.0 mi North 4.6 mph - N/A   Clear
1:35 AM 32.0 °F 25.6 °F 28.4 °F 87% 30.22 in 9.0 mi NNE 6.9 mph - N/A   Clear
1:55 AM 32.0 °F 25.6 °F 28.4 °F 87% 30.22 in 8.0 mi NNE 6.9 mph - N/A   Clear
2:15 AM 30.2 °F 23.4 °F 28.4 °F 93% 30.22 in 7.0 mi North 6.9 mph - N/A   Clear
2:35 AM 30.2 °F 24.3 °F 28.4 °F 93% 30.20 in 7.0 mi NNE 5.8 mph - N/A   Clear
2:55 AM 30.2 °F 24.3 °F 28.4 °F 93% 30.19 in 6.0 mi NNE 5.8 mph - N/A   Clear
3:15 AM 30.2 °F 24.3 °F 26.6 °F 86% 30.19 in 6.0 mi North 5.8 mph - N/A   Clear
3:35 AM 30.2 °F 23.4 °F 28.4 °F 93% 30.18 in 8.0 mi NNE 6.9 mph - N/A   Clear
3:55 AM 30.2 °F 23.4 °F 28.4 °F 93% 30.18 in 7.0 mi NNE 6.9 mph - N/A   Clear
4:15 AM 30.2 °F 24.3 °F 26.6 °F 86% 30.17 in 8.0 mi North 5.8 mph - N/A   Clear
4:35 AM 30.2 °F 24.3 °F 28.4 °F 93% 30.17 in 10.0 mi North 5.8 mph - N/A   Clear
4:55 AM 30.2 °F 24.3 °F 28.4 °F 93% 30.17 in 10.0 mi NNE 5.8 mph - N/A   Clear
5:15 AM 30.2 °F 24.3 °F 26.6 °F 86% 30.17 in 8.0 mi North 5.8 mph - N/A   Clear
5:35 AM 30.2 °F 26.7 °F 26.6 °F 86% 30.17 in 10.0 mi North 3.5 mph - N/A   Clear
5:55 AM 30.2 °F 24.3 °F 28.4 °F 93% 30.17 in 10.0 mi NNE 5.8 mph - N/A   Clear
6:15 AM 30.2 °F 25.4 °F 28.4 °F 93% 30.18 in 10.0 mi North 4.6 mph - N/A   Clear
6:35 AM 30.2 °F 23.4 °F 28.4 °F 93% 30.17 in 10.0 mi NNE 6.9 mph - N/A   Clear
6:55 AM 30.2 °F 24.3 °F 28.4 °F 93% 30.17 in 9.0 mi NNE 5.8 mph - N/A   Clear
7:15 AM 30.2 °F 24.3 °F 28.4 °F 93% 30.17 in 9.0 mi NNE 5.8 mph - N/A   Clear
7:35 AM 30.2 °F 24.3 °F 28.4 °F 93% 30.18 in 10.0 mi NNE 5.8 mph - N/A   Clear
7:55 AM 32.0 °F 27.5 °F 28.4 °F 87% 30.18 in 10.0 mi North 4.6 mph - N/A   Clear
8:35 AM 37.4 °F 32.1 °F 33.8 °F 87% 30.18 in 10.0 mi North 6.9 mph - N/A   Clear
8:55 AM 37.4 °F 30.8 °F 30.2 °F 75% 30.18 in 10.0 mi NNE 9.2 mph - N/A   Clear
9:15 AM 37.4 °F 31.4 °F 33.8 °F 87% 30.17 in 10.0 mi NNE 8.1 mph - N/A   Clear
9:35 AM 39.2 °F 33.0 °F 33.8 °F 81% 30.17 in 10.0 mi NNE 9.2 mph - N/A   Clear
9:55 AM 39.2 °F 33.0 °F 33.8 °F 81% 30.17 in 10.0 mi NNE 9.2 mph - N/A   Clear
10:35 AM 42.8 °F 38.6 °F 33.8 °F 70% 30.17 in 10.0 mi North 6.9 mph - N/A   Clear
10:55 AM 44.6 °F 41.4 °F 35.6 °F 71% 30.16 in 10.0 mi NNE 5.8 mph - N/A   Scattered Clouds
11:15 AM 46.4 °F 41.1 °F 35.6 °F 66% 30.15 in 10.0 mi NE 11.5 mph - N/A   Mostly Cloudy
11:35 AM 46.4 °F 41.9 °F 35.6 °F 66% 30.15 in 10.0 mi ENE 9.2 mph - N/A   Scattered Clouds
11:55 AM 46.4 °F 43.5 °F 35.6 °F 66% 30.14 in 10.0 mi ENE 5.8 mph - N/A   Partly Cloudy
12:15 PM 46.4 °F 41.9 °F 35.6 °F 66% 30.14 in 10.0 mi NNE 9.2 mph - N/A   Scattered Clouds
12:35 PM 46.4 °F 41.9 °F 35.6 °F 66% 30.13 in 10.0 mi NNE 9.2 mph - N/A   Scattered Clouds
12:55 PM 48.2 °F - 33.8 °F 58% 30.12 in 10.0 mi ENE 8.1 mph - N/A   Clear
1:15 PM 48.2 °F - 33.8 °F 58% 30.12 in 10.0 mi ENE 8.1 mph - N/A   Clear
1:35 PM 48.2 °F - 33.8 °F 58% 30.12 in 10.0 mi NE 9.2 mph - N/A   Partly Cloudy
1:55 PM 48.2 °F - 33.8 °F 58% 30.12 in 10.0 mi ENE 8.1 mph - N/A   Clear
2:15 PM 48.2 °F - 33.8 °F 58% 30.11 in 10.0 mi North 8.1 mph - N/A   Clear
2:35 PM 48.2 °F - 33.8 °F 58% 30.12 in 10.0 mi NNE 4.6 mph - N/A   Clear
2:55 PM 46.4 °F 44.3 °F 33.8 °F 62% 30.12 in 10.0 mi NE 4.6 mph - N/A   Clear
3:15 PM 46.4 °F 43.5 °F 33.8 °F 62% 30.13 in 10.0 mi ENE 5.8 mph - N/A   Clear
3:35 PM 46.4 °F - 33.8 °F 62% 30.13 in 10.0 mi Calm Calm - N/A   Clear
3:55 PM 44.6 °F 42.2 °F 33.8 °F 66% 30.13 in 10.0 mi ENE 4.6 mph - N/A   Clear
4:15 PM 44.6 °F 40.7 °F 33.8 °F 66% 30.12 in 10.0 mi NE 6.9 mph - N/A   Clear
4:35 PM 42.8 °F 38.6 °F 33.8 °F 70% 30.13 in 10.0 mi ENE 6.9 mph - N/A   Clear
4:55 PM 42.8 °F 40.1 °F 33.8 °F 70% 30.12 in 10.0 mi NE 4.6 mph - N/A   Clear
5:15 PM 41.0 °F 37.1 °F 33.8 °F 76% 30.13 in 10.0 mi ENE 5.8 mph - N/A   Clear
5:35 PM 41.0 °F 39.0 °F 33.8 °F 76% 30.13 in 10.0 mi ENE 3.5 mph - N/A   Clear
5:55 PM 41.0 °F 38.0 °F 33.8 °F 76% 30.14 in 10.0 mi NE 4.6 mph - N/A   Clear
6:15 PM 39.2 °F 37.0 °F 33.8 °F 81% 30.14 in 10.0 mi NNE 3.5 mph - N/A   Clear
6:35 PM 39.2 °F 35.9 °F 33.8 °F 81% 30.14 in 10.0 mi NE 4.6 mph - N/A   Clear
6:55 PM 39.2 °F 37.0 °F 33.8 °F 81% 30.14 in 10.0 mi NNE 3.5 mph - N/A   Clear
7:15 PM 37.4 °F 33.8 °F 32.0 °F 81% 30.14 in 10.0 mi NE 4.6 mph - N/A   Clear
7:35 PM 37.4 °F 33.8 °F 32.0 °F 81% 30.14 in 10.0 mi NNE 4.6 mph - N/A   Clear
7:55 PM 37.4 °F 34.9 °F 32.0 °F 81% 30.14 in 10.0 mi NE 3.5 mph - N/A   Clear
8:15 PM 37.4 °F 33.8 °F 32.0 °F 81% 30.14 in 10.0 mi NNE 4.6 mph - N/A   Clear
8:35 PM 35.6 °F 32.8 °F 32.0 °F 87% 30.14 in 10.0 mi NNE 3.5 mph - N/A   Clear
8:55 PM 35.6 °F 31.7 °F 32.0 °F 87% 30.14 in 10.0 mi NE 4.6 mph - N/A   Clear
9:35 PM 37.4 °F 32.8 °F 32.0 °F 81% 30.14 in 10.0 mi NNE 5.8 mph - N/A   Clear
9:55 PM 37.4 °F 34.9 °F 32.0 °F 81% 30.14 in 10.0 mi NNE 3.5 mph - N/A   Clear
10:15 PM 35.6 °F 31.7 °F 30.2 °F 81% 30.14 in 10.0 mi NNE 4.6 mph - N/A   Clear
10:35 PM 35.6 °F 31.7 °F 30.2 °F 81% 30.14 in 10.0 mi NNE 4.6 mph - N/A   Clear
10:55 PM 35.6 °F 31.7 °F 30.2 °F 81% 30.13 in 10.0 mi NNE 4.6 mph - N/A   Clear
11:15 PM 35.6 °F 32.8 °F 28.4 °F 75% 30.14 in 10.0 mi NNE 3.5 mph - N/A   Clear
11:35 PM 35.6 °F 32.8 °F 28.4 °F 75% 30.14 in 10.0 mi North 3.5 mph - N/A   Clear
11:55 PM 35.6 °F 32.8 °F 28.4 °F 75% 30.14 in 10.0 mi North 3.5 mph - N/A   Clear